FW1313 Weather Reports


Display with metric or nautical units.
time (UTC)temp
F
wind
direction
speed
MPH
gust
MPH
rain 1hr
in
rain 24hr
in
rain mn
in
humidity
%
barometer
mb
20260509210359 73 174 0.0 0.0 0.00 0.00 0.00 37 1016.2
20260509203359 76 203 0.0 1.0 0.00 0.00 0.00 41 1016.1
20260509200402 76 181 0.0 0.0 0.00 0.00 0.00 43 1015.9
20260509193402 74 184 0.0 0.0 0.00 0.00 0.00 44 1016.0
20260509190359 76 187 0.0 0.0 0.00 0.00 0.00 39 1016.1
20260509183359 78 167 0.0 0.0 0.00 0.00 0.00 17 1016.0
20260509180402 76 150 0.0 0.0 0.00 0.00 0.00 15 1015.9
20260509173359 76 143 0.0 0.0 0.00 0.00 0.00 18 1015.6
20260509170359 73 167 0.0 0.0 0.00 0.00 0.00 15 1015.2
20260509163359 70 159 0.0 0.0 0.00 0.00 0.00 17 1015.0
20260509160359 68 148 0.0 0.0 0.00 0.00 0.00 18 1014.8
20260509153359 67 109 0.0 0.0 0.00 0.00 0.00 20 1014.8
20260509150359 66 86 0.0 0.0 0.00 0.00 0.00 18 1014.8
20260509143359 65 86 0.0 0.0 0.00 0.00 0.00 13 1014.5
20260509140402 64 86 0.0 0.0 0.00 0.00 0.00 12 1014.3
20260509133359 64 86 0.0 0.0 0.00 0.00 0.00 8 1014.1
20260509130359 63 80 0.0 0.0 0.00 0.00 0.00 6 1014.0
20260509123359 64 80 0.0 0.0 0.00 0.00 0.00 5 1014.0
20260509120359 63 80 0.0 0.0 0.00 0.00 0.00 5 1014.2
20260509113359 63 81 0.0 0.0 0.00 0.00 0.00 6 1014.4
20260509110359 63 81 0.0 0.0 0.00 0.00 0.00 5 1014.4
20260509103359 62 79 0.0 0.0 0.00 0.00 0.00 6 1014.7
20260509100359 62 79 0.0 0.0 0.00 0.00 0.00 7 1014.8
20260509093359 62 79 0.0 0.0 0.00 0.00 0.00 7 1015.1
20260509090359 62 79 0.0 0.0 0.00 0.00 0.00 8 1015.3
20260509083359 60 79 0.0 0.0 0.00 0.00 0.00 10 1015.7
20260509080359 61 80 0.0 0.0 0.00 0.00 0.00 13 1016.2
20260509073359 61 79 0.0 0.0 0.00 0.00 0.00 13 1016.4
20260509070359 61 83 0.0 0.0 0.00 0.00 0.00 16 1016.6
20260509063359 60 86 0.0 0.0 0.00 0.00 0.00 21 1017.0
20260509060402 59 83 0.0 0.0 0.00 0.00 0.00 44 1017.2
20260509053359 59 85 0.0 0.0 0.00 0.00 0.00 44 1017.7
20260509050359 59 89 0.0 0.0 0.00 0.00 0.00 38 1017.9
20260509043359 59 99 0.0 0.0 0.00 0.00 0.00 41 1017.9
20260509040359 59 91 0.0 0.0 0.00 0.00 0.00 41 1017.8
20260509033402 60 88 0.0 0.0 0.00 0.00 0.00 30 1017.7
20260509030359 59 82 0.0 0.0 0.00 0.00 0.00 36 1017.4
20260509023359 59 82 0.0 0.0 0.00 0.00 0.00 47 1017.1
20260509020359 61 124 0.0 0.0 0.00 0.00 0.00 58 1017.0
20260509013359 63 145 0.0 0.0 0.00 0.00 0.00 55 1017.0
20260509010359 64 177 0.0 0.0 0.00 0.00 0.00 51 1017.0
20260509003402 65 172 0.0 0.0 0.00 0.00 0.00 48 1016.9
20260509000359 66 208 0.0 0.0 0.00 0.00 0.00 48 1016.9
20260508233359 67 172 0.0 0.0 0.00 0.00 0.00 46 1016.8
20260508230359 67 189 0.0 0.0 0.00 0.00 0.00 34 1016.6
20260508223359 68 158 0.0 0.0 0.00 0.00 0.00 40 1016.5
20260508220359 68 159 0.0 0.0 0.00 0.00 0.00 49 1016.5
20260508213359 69 159 0.0 1.0 0.00 0.00 0.00 51 1016.6